Todos
Avenger Fld Airport (Sweetwater, TX) SWW Condições meteorológicas
|
Sweetwater, TX (KSWW)
Céu Limpo
Vento Ligeiro |
|
37 °C |
There is no TAF data available at SWW or any nearby airports.
Histórico recente de METAR SWW
| Date | Time (CDT) | Flight Rules | Wind Dir. | Speed | Type | Height AGL (ft) | Visibility | Temp (°C) | Temp (°F) | Dew Point (°C) | Dew Point (°F) | Rel. Humid. | Pressure | Density Altitude | Remarks |
|---|---|---|---|---|---|---|---|---|---|---|---|---|---|---|---|
| 31-Ago | 12:55 | VFR | 170° | 5 kt | 10 miles | 37° | 98° | 12° | 53° | 22% | 30.09 in Hg | 5.324 ft | Wind gusting to 15 KT | ||
| 31-Ago | 12:35 | VFR | 140° | 11 kt | 10 miles | 35° | 95° | 14° | 57° | 28% | 30.09 in Hg | 5.084 ft | Wind gusting to 15 KT | ||
| 31-Ago | 12:15 | VFR | 190° | 8 kt | 10 miles | 35° | 95° | 15° | 59° | 30% | 30.10 in Hg | 5.074 ft | |||
| 31-Ago | 11:55 | VFR | 200° | 8 kt | 10 miles | 34° | 93° | 16° | 60° | 34% | 30.11 in Hg | 4.944 ft | Wind gusting to 14 KT | ||
| 31-Ago | 11:35 | VFR | 220° | 10 kt | 10 miles | 33° | 91° | 17° | 62° | 38% | 30.11 in Hg | 4.824 ft | |||
| 31-Ago | 11:15 | VFR | 210° | 12 kt | 10 miles | 32° | 89° | 18° | 64° | 42% | 30.10 in Hg | 4.714 ft | Wind gusting to 15 KT | ||
| 31-Ago | 10:55 | VFR | 210° | 10 kt | 10 miles | 32° | 89° | 18° | 64° | 44% | 30.10 in Hg | 4.714 ft | |||
| 31-Ago | 10:15 | VFR | 190° | 14 kt | 10 miles | 30° | 86° | 18° | 64° | 50% | 30.10 in Hg | 4.474 ft | |||
| 31-Ago | 09:55 | VFR | 210° | 15 kt | 10 miles | 30° | 86° | 19° | 66° | 52% | 30.09 in Hg | 4.484 ft | Wind gusting to 19 KT | ||
| 31-Ago | 09:35 | VFR | 210° | 15 kt | 10 miles | 29° | 84° | 19° | 66° | 55% | 30.10 in Hg | 4.354 ft | Wind gusting to 19 KT | ||
| 31-Ago | 09:15 | VFR | 200° | 13 kt | 10 miles | 28° | 82° | 19° | 66° | 57% | 30.09 in Hg | 4.244 ft | Wind gusting to 18 KT | ||
| 31-Ago | 08:55 | VFR | 170° | 13 kt | 10 miles | 27° | 80° | 19° | 66° | 59% | 30.08 in Hg | 4.134 ft | |||
| 31-Ago | 08:35 | VFR | 170° | 10 kt | 10 miles | 27° | 80° | 18° | 64° | 60% | 30.08 in Hg | 4.134 ft | |||
| 31-Ago | 08:15 | VFR | 190° | 11 kt | 10 miles | 26° | 78° | 18° | 64° | 63% | 30.07 in Hg | 4.024 ft | |||
| 31-Ago | 07:55 | VFR | 190° | 10 kt | 10 miles | 25° | 77° | 18° | 64° | 64% | 30.06 in Hg | 3.914 ft | |||
| 31-Ago | 07:35 | VFR | 190° | 10 kt | 10 miles | 25° | 77° | 17° | 62° | 65% | 30.05 in Hg | 3.924 ft | |||
| 31-Ago | 07:15 | VFR | 190° | 10 kt | 10 miles | 24° | 75° | 17° | 62° | 64% | 30.05 in Hg | 3.804 ft | |||
| 31-Ago | 06:55 | VFR | 190° | 9 kt | 10 miles | 25° | 77° | 17° | 62° | 62% | 30.05 in Hg | 3.924 ft | |||
| 31-Ago | 06:35 | VFR | 190° | 9 kt | 10 miles | 25° | 77° | 17° | 62° | 60% | 30.05 in Hg | 3.924 ft | |||
| 31-Ago | 06:15 | VFR | 180° | 10 kt | 10 miles | 25° | 77° | 17° | 62° | 59% | 30.05 in Hg | 3.924 ft | |||
| 31-Ago | 05:55 | VFR | 180° | 12 kt | 10 miles | 25° | 77° | 16° | 60° | 57% | 30.05 in Hg | 3.924 ft | |||
| 31-Ago | 05:35 | VFR | 180° | 14 kt | 10 miles | 26° | 78° | 16° | 60° | 56% | 30.05 in Hg | 4.044 ft | |||
| 31-Ago | 05:15 | VFR | 170° | 12 kt | 10 miles | 26° | 78° | 16° | 60° | 54% | 30.04 in Hg | 4.054 ft | |||
| 31-Ago | 04:55 | VFR | 170° | 11 kt | 10 miles | 26° | 78° | 16° | 60° | 52% | 30.04 in Hg | 4.054 ft |
Entrar
| Seu navegador não suporta. atualize seu navegador |
